Retour au catalogue

STARLINK-37170

ActifCommunicationsSSO
NORAD 68614·PAYLOAD·🇺🇸 United States

Lancé Apr 5, 2026 depuis Vandenberg Space Force Base

Loading…

Prochains Passages (prochaines 24 heures)

TLE

FraisSource: CelesTrak SupGP

Époque: Sep 14, 2026, 23:01 UTC

1 68614C 26073N   26257.95951389  .00081774  00000+0  25381-2 0  2578
2 68614  97.2852  96.0616 0001643  94.2747 208.4971 15.33401402    10

Suivez STARLINK-37170 en temps réel avec AllMySat

Download on the App Store